Location: Blue Mountain Vista Observatory
(40.6992°N, 75.9422°W)
Time: 12:30:29
(UTC-05:00)

Amateur Radio Satellites - All Passes

Search period start: 22 February 2017 12:00
Search period end: 23 February 2017 12:00
Location: Blue Mountain Vista Observatory, 40.6992°N, 75.9422°W

Satellite Date Start Highest point End Downlink Frequencies (MHz)
Time Altitude Azimuth
Gurwin Techsat 1B 22 Feb 12:01:42 12:05:39 22° 64° (ENE) 12:09:36 435.225
UKube-1 22 Feb 12:12:36 12:15:45 20° 94° (E) 12:18:53 .
AO-7 22 Feb 12:12:59 12:15:34 12° 43° (NE) 12:18:09 .
ISS 22 Feb 12:15:31 12:17:02 12° 358° (N) 12:18:32 437.550
DUCHIFAT 1 22 Feb 12:21:08 12:23:23 14° 268° (W) 12:25:39 145.980
SPROUT 22 Feb 12:23:39 12:27:57 72° 101° (E) 12:32:15 437.525
ESTCUBE 1 22 Feb 12:46:25 12:49:37 19° 294° (WNW) 12:52:48 437.505/2401.250
Tancredo 1 22 Feb 12:49:50 12:51:19 12° 5° (N) 12:52:48 437.200
YUBILEINY 22 Feb 13:16:46 13:20:57 14° 302° (WNW) 13:25:09 435.215
Oscar 19 22 Feb 13:22:48 13:27:36 39° 262° (W) 13:32:25 437.125/150
50 SAT 22 Feb 13:26:12 13:28:41 19° 292° (WNW) 13:31:10 437.505
VELOX 1 22 Feb 13:26:34 13:29:52 21° 294° (WNW) 13:33:11 145.980
DX 1 22 Feb 13:28:48 13:32:54 41° 289° (WNW) 13:36:59 434.975-435.025
AO-85 22 Feb 13:32:33 13:36:21 49° 54° (NE) 13:40:12 145.980
Gurwin Techsat 1B 22 Feb 13:40:05 13:45:13 50° 260° (W) 13:50:24 435.225
UKube-1 22 Feb 13:47:55 13:51:52 35° 290° (WNW) 13:55:47 .
ITAMSAT 1 22 Feb 13:48:55 13:53:42 38° 68° (ENE) 13:58:30 435.822/435.867
ISS 22 Feb 13:52:06 13:54:30 18° 18° (NNE) 13:56:53 437.550
AO-7 22 Feb 13:58:25 14:06:24 52° 64° (ENE) 14:14:24 .
SPROUT 22 Feb 14:02:07 14:03:16 11° 298° (WNW) 14:04:25 437.525
ITUPSAT 1 22 Feb 14:06:35 14:10:24 23° 94° (E) 14:14:12 437.325
BEESAT 22 Feb 14:15:14 14:19:23 29° 96° (E) 14:23:31 436.000
Tancredo 1 22 Feb 14:25:38 14:28:27 27° 25° (NNE) 14:31:14 437.200
BEESAT 3 22 Feb 15:05:18 15:08:49 28° 50° (NE) 15:12:18 437.485
MOZHAYETS 4 22 Feb 15:05:41 15:09:55 34° 97° (E) 15:14:05
AO-85 22 Feb 15:14:25 15:16:20 13° 250° (WSW) 15:18:15 145.980
ISS 22 Feb 15:28:04 15:31:22 84° 34° (NE) 15:34:37 437.550
ITAMSAT 1 22 Feb 15:28:56 15:33:14 26° 265° (W) 15:37:33 435.822/435.867
RS-15 22 Feb 15:33:42 15:39:15 15° 94° (E) 15:44:52 29.354- 29.394
BEESAT 2 22 Feb 15:36:12 15:39:38 26° 49° (NE) 15:43:02 435.950
ITUPSAT 1 22 Feb 15:43:55 15:48:19 37° 291° (WNW) 15:52:41 437.325
PCSat 22 Feb 15:46:20 15:50:28 23° 107° (ESE) 15:54:38 145.827
AO-7 22 Feb 15:51:50 15:59:20 36° 262° (W) 16:06:53 .
BEESAT 22 Feb 15:52:58 15:57:06 30° 292° (WNW) 16:01:12 436.000
CUBESAT XI-V 22 Feb 15:56:48 16:00:03 19° 93° (E) 16:03:17 437.345
KKS-1 22 Feb 16:00:43 16:04:46 33° 97° (E) 16:08:48 437.445
Tancredo 1 22 Feb 16:01:46 16:04:49 40° 222° (SW) 16:07:50 437.200
LilacSat-2 22 Feb 16:12:02 16:13:07 11° 64° (ENE) 16:14:11 437.200
CUTE-I 22 Feb 16:14:07 16:17:32 18° 61° (ENE) 16:20:58 437.470
NUDT-PHONESAT 22 Feb 16:22:30 16:23:31 11° 64° (ENE) 16:24:33 437.300
M-CUBED/EXP-1 PRIME 22 Feb 16:42:19 16:45:01 19° 101° (E) 16:47:51 437.505
BEESAT 3 22 Feb 16:42:58 16:46:21 26° 246° (WSW) 16:49:42 437.485
MOZHAYETS 4 22 Feb 16:43:14 16:46:52 23° 293° (WNW) 16:50:28
STARS 22 Feb 16:43:50 16:48:04 43° 99° (E) 16:52:17 437.465
DOVE 4 22 Feb 16:47:42 16:51:20 30° 70° (ENE) 16:55:00 437.250
ISS 22 Feb 17:06:53 17:07:20 10° 232° (SW) 17:07:48 437.550
XW-2F 22 Feb 17:13:38 17:17:22 54° 74° (ENE) 17:21:09 145.980 - 146.000
BEESAT 2 22 Feb 17:13:50 17:17:24 30° 246° (WSW) 17:20:56 435.950
KAITUO 1B 22 Feb 17:14:26 17:18:04 46° 74° (ENE) 17:21:45 145.475/437.950
XW-2D 22 Feb 17:16:13 17:20:00 63° 75° (ENE) 17:23:50 145.860 - 145.880
XW-2B 22 Feb 17:21:10 17:24:59 71° 75° (ENE) 17:28:50 145.730 - 145.750
PCSat 22 Feb 17:28:16 17:33:30 50° 304° (NW) 17:38:48 145.827
XW-2C 22 Feb 17:29:38 17:33:28 89° 261° (W) 17:37:21 145.795 - 145.815
CUBESAT XI-V 22 Feb 17:33:16 17:37:35 41° 289° (WNW) 17:41:53 437.345
RS-15 22 Feb 17:37:29 17:49:13 69° 115° (ESE) 18:01:25 29.354- 29.394
KKS-1 22 Feb 17:37:37 17:41:09 23° 293° (WNW) 17:44:40 437.445
LilacSat-2 22 Feb 17:43:04 17:46:52 57° 260° (W) 17:50:43 437.200
CUTE-I 22 Feb 17:51:46 17:57:02 64° 258° (WSW) 18:02:21 437.470
NUDT-PHONESAT 22 Feb 17:53:18 17:56:58 53° 260° (W) 18:00:41 437.300
HO-68 22 Feb 17:58:11 18:04:46 41° 65° (ENE) 18:11:21 435.675
SEEDS 22 Feb 18:07:58 18:10:50 18° 66° (ENE) 18:13:43 437.485
M-CUBED/EXP-1 PRIME 22 Feb 18:16:13 18:19:30 31° 293° (WNW) 18:22:59 437.505
STRAND 1 22 Feb 18:19:06 18:22:11 16° 91° (E) 18:25:15 437.568
STARS 22 Feb 18:21:04 18:24:05 18° 295° (WNW) 18:27:05 437.465
XW-2A 22 Feb 18:23:23 18:26:43 59° 75° (ENE) 18:30:05 145.665 - 145.685
CUBEBUG 2 22 Feb 18:25:04 18:28:14 20° 65° (ENE) 18:31:28 437.445
DOVE 4 22 Feb 18:26:03 18:29:07 20° 266° (W) 18:32:12 437.250
CUTE 1.7 + AOD 2 22 Feb 18:38:37 18:42:49 59° 75° (ENE) 18:47:03 437.475
KAITUO 1B 22 Feb 18:50:58 18:52:21 12° 269° (W) 18:53:43 145.475/437.950
AO-73 22 Feb 18:52:49 18:55:00 14° 63° (ENE) 18:57:13 145.935
Oscar 11 22 Feb 19:03:18 19:05:46 15° 64° (ENE) 19:08:13 .
UWE-3 22 Feb 19:08:12 19:12:11 34° 70° (ENE) 19:16:18 435.000/436.395/437.385
YUBILEINY 22 Feb 19:32:10 19:33:50 11° 55° (NE) 19:35:30 435.215
ZACube-1 22 Feb 19:36:13 19:40:22 41° 71° (ENE) 19:44:37 437.345
AAUSAT CUBESAT 2 22 Feb 19:40:35 19:44:45 84° 258° (WSW) 19:48:56 437.432
SEEDS 22 Feb 19:42:16 19:46:14 39° 262° (W) 19:50:13 437.485
HO-68 22 Feb 19:45:51 19:52:27 39° 262° (W) 19:59:05 435.675
RS-15 22 Feb 19:51:19 20:02:35 43° 320° (NW) 20:14:12 29.354- 29.394
STRAND 1 22 Feb 19:56:40 20:01:45 60° 287° (WNW) 20:06:48 437.568
CUBEBUG 2 22 Feb 20:00:26 20:04:32 39° 263° (W) 20:08:47 437.445
DELFI C3 22 Feb 20:07:05 20:10:06 21° 68° (ENE) 20:13:06 145.870
CUTE 1.7 + AOD 2 22 Feb 20:17:30 20:19:01 12° 270° (W) 20:20:31 437.475
AO-73 22 Feb 20:26:19 20:30:40 61° 260° (W) 20:35:10 145.935
Oscar 11 22 Feb 20:37:12 20:41:26 51° 260° (W) 20:45:43 .
UWE-3 22 Feb 20:45:19 20:48:43 22° 267° (W) 20:52:12 435.000/436.395/437.385
UNISAT 6 22 Feb 20:59:47 21:02:00 13° 90° (E) 21:04:13 437.425
TIGRISAT 22 Feb 21:01:13 21:03:15 13° 90° (E) 21:05:16 435.000
ZACube-1 22 Feb 21:13:46 21:16:49 18° 268° (W) 21:19:55 437.345
FO-29 22 Feb 21:14:41 21:18:40 15° 84° (E) 21:22:29 435.910
YUBILEINY 22 Feb 21:24:14 21:32:51 58° 78° (ENE) 21:41:22 435.215
DELFI C3 22 Feb 21:41:17 21:44:43 28° 264° (W) 21:48:10 145.870
PRISM 22 Feb 21:43:47 21:47:53 85° 281° (W) 21:51:57 437.425
SO-50 22 Feb 22:04:00 22:07:56 27° 113° (ESE) 22:11:50 436.795
ESTCUBE 1 22 Feb 22:07:57 22:12:04 36° 70° (ENE) 22:16:12 437.505/2401.250
RS-15 22 Feb 22:10:43 22:19:47 22° 353° (N) 22:28:52 29.354- 29.394
UNISAT 6 22 Feb 22:34:26 22:39:06 62° 286° (WNW) 22:43:43 437.425
TIGRISAT 22 Feb 22:35:40 22:40:21 65° 286° (WNW) 22:44:58 435.000
EO-79 22 Feb 22:37:07 22:38:26 11° 90° (E) 22:39:44 145.935-145.965
VELOX 1 22 Feb 22:46:33 22:50:24 31° 69° (ENE) 22:54:15 145.980
DX 1 22 Feb 22:49:29 22:52:01 15° 64° (ENE) 22:54:31 434.975-435.025
POLYITAN 1 22 Feb 22:52:18 22:55:12 17° 93° (E) 22:58:05 437.675
NANOSAT C BR1 22 Feb 22:54:43 22:57:30 17° 93° (E) 23:00:16 145.865
QB50P2 22 Feb 22:54:54 22:58:04 20° 94° (E) 23:01:15 145.880/145.840
O/OREOS (USA 219) 22 Feb 22:55:45 23:00:05 54° 108° (ESE) 23:04:29 437.305
AIST 2D 22 Feb 22:56:04 22:59:14 29° 97° (E) 23:02:21 435.315
FO-29 22 Feb 22:57:02 23:04:51 84° 103° (ESE) 23:11:55 435.910
UKube-1 22 Feb 23:07:16 23:10:02 17° 65° (ENE) 23:12:49 .
SPROUT 22 Feb 23:16:27 23:20:33 50° 73° (ENE) 23:24:42 437.525
YUBILEINY 22 Feb 23:21:54 23:29:03 30° 277° (W) 23:36:10 435.215
BUGSAT 1 22 Feb 23:37:49 23:40:26 16° 92° (E) 23:43:02 437.445
SO-50 22 Feb 23:43:57 23:48:16 36° 310° (NW) 23:52:32 436.795
ESTCUBE 1 22 Feb 23:45:30 23:48:56 21° 266° (W) 23:52:24 437.505/2401.250
50 SAT 22 Feb 23:58:52 00:02:17 50° 260° (W) 00:05:42 437.505
DUCHIFAT 1 23 Feb 00:02:55 00:07:13 89° 272° (W) 00:11:28 145.980
EO-79 23 Feb 00:10:20 00:14:34 61° 286° (WNW) 00:18:47 145.935-145.965
VELOX 1 23 Feb 00:23:20 00:26:51 23° 265° (W) 00:30:23 145.980
DX 1 23 Feb 00:23:35 00:27:46 49° 260° (W) 00:31:59 434.975-435.025
POLYITAN 1 23 Feb 00:27:07 00:31:08 39° 289° (WNW) 00:35:08 437.675
RS-15 23 Feb 00:27:20 00:37:56 31° 29° (NNE) 00:48:15 29.354- 29.394
NANOSAT C BR1 23 Feb 00:29:22 00:33:23 40° 288° (WNW) 00:37:23 145.865
AIST 2D 23 Feb 00:29:57 00:32:13 16° 292° (WNW) 00:34:29 435.315
QB50P2 23 Feb 00:30:02 00:33:56 34° 289° (WNW) 00:37:49 145.880/145.840
PCSat 23 Feb 00:33:42 00:37:44 21° 46° (NE) 00:41:45 145.827
O/OREOS (USA 219) 23 Feb 00:37:03 00:39:51 16° 306° (NW) 00:42:40 437.305
UKube-1 23 Feb 00:41:37 00:45:43 43° 261° (W) 00:49:50 .
FO-29 23 Feb 00:43:22 00:48:49 22° 303° (WNW) 00:54:01 435.910
SPROUT 23 Feb 00:54:40 00:56:45 13° 269° (W) 00:58:51 437.525
BUGSAT 1 23 Feb 01:11:57 01:15:58 43° 288° (WNW) 01:19:59 437.445
ITUPSAT 1 23 Feb 01:12:57 01:16:59 27° 67° (ENE) 01:21:00 437.325
BEESAT 23 Feb 01:21:12 01:25:27 33° 69° (ENE) 01:29:44 436.000
Oscar 19 23 Feb 01:34:05 01:39:14 75° 103° (ESE) 01:44:20 437.125/150
Gurwin Techsat 1B 23 Feb 01:56:18 02:01:37 67° 102° (ESE) 02:06:54 435.225
AO-7 23 Feb 02:02:48 02:06:53 14° 89° (E) 02:10:58 .
ITAMSAT 1 23 Feb 02:03:38 02:06:07 13° 90° (E) 02:08:35 435.822/435.867
MOZHAYETS 4 23 Feb 02:07:06 02:11:13 32° 70° (ENE) 02:15:22
PCSat 23 Feb 02:16:13 02:21:38 67° 244° (WSW) 02:26:59 145.827
RS-15 23 Feb 02:40:18 02:52:44 80° 56° (ENE) 03:04:35 29.354- 29.394
ITUPSAT 1 23 Feb 02:50:23 02:54:39 32° 263° (W) 02:58:59 437.325
KKS-1 23 Feb 02:58:30 03:02:20 30° 69° (ENE) 03:06:10 437.445
BEESAT 23 Feb 02:59:15 03:03:13 26° 264° (W) 03:07:15 436.000
CUBESAT XI-V 23 Feb 02:59:59 03:03:16 19° 65° (ENE) 03:06:32 437.345
Oscar 19 23 Feb 03:15:18 03:17:54 14° 300° (WNW) 03:20:30 437.125/150
M-CUBED/EXP-1 PRIME 23 Feb 03:28:55 03:31:19 19° 64° (ENE) 03:33:42 437.505
Gurwin Techsat 1B 23 Feb 03:37:42 03:40:59 17° 299° (WNW) 03:44:16 435.225
STARS 23 Feb 03:40:02 03:44:02 36° 70° (ENE) 03:48:04 437.465
ITAMSAT 1 23 Feb 03:40:51 03:46:06 73° 286° (WNW) 03:51:18 435.822/435.867
MOZHAYETS 4 23 Feb 03:44:35 03:48:23 25° 265° (W) 03:52:13
AO-85 23 Feb 03:47:30 03:50:40 18° 112° (ESE) 03:53:41 145.980
AO-7 23 Feb 03:52:30 04:00:52 79° 107° (ESE) 04:09:09 .
KKS-1 23 Feb 04:35:15 04:38:52 25° 265° (W) 04:42:31 437.445
CUBESAT XI-V 23 Feb 04:35:50 04:40:18 44° 261° (W) 04:44:46 437.345
RS-15 23 Feb 04:54:14 05:03:51 29° 258° (WSW) 05:13:10 29.354- 29.394
M-CUBED/EXP-1 PRIME 23 Feb 05:03:09 05:05:43 21° 259° (WSW) 05:08:16 437.505
STARS 23 Feb 05:17:20 05:20:29 19° 266° (W) 05:23:40 437.465
LilacSat-2 23 Feb 05:17:46 05:20:04 15° 92° (E) 05:22:21 437.200
NUDT-PHONESAT 23 Feb 05:25:28 05:27:34 14° 92° (E) 05:29:39 437.300
AO-85 23 Feb 05:26:25 05:30:48 46° 306° (NW) 05:34:54 145.980
STRAND 1 23 Feb 05:34:23 05:38:22 23° 65° (ENE) 05:42:23 437.568
AO-7 23 Feb 05:46:27 05:52:46 25° 306° (NW) 05:59:04 .
CUTE-I 23 Feb 06:09:01 06:14:17 53° 100° (E) 06:19:31 437.470
KAITUO 1B 23 Feb 06:19:46 06:23:33 71° 101° (ESE) 06:27:17 145.475/437.950
XW-2F 23 Feb 06:20:05 06:23:56 86° 102° (ESE) 06:27:44 145.980 - 146.000
DOVE 4 23 Feb 06:22:35 06:27:15 85° 283° (WNW) 06:32:12 437.250
XW-2D 23 Feb 06:23:06 06:26:58 82° 283° (WNW) 06:30:45 145.860 - 145.880
CUTE 1.7 + AOD 2 23 Feb 06:27:12 06:27:20 10° 89° (E) 06:27:27 437.475
XW-2B 23 Feb 06:28:06 06:31:57 73° 284° (WNW) 06:35:44 145.730 - 145.750
BEESAT 3 23 Feb 06:31:47 06:35:33 50° 118° (ESE) 06:39:24 437.485
SO-50 23 Feb 06:35:14 06:38:56 24° 46° (NE) 06:42:36 436.795
XW-2C 23 Feb 06:36:42 06:40:28 55° 286° (WNW) 06:44:11 145.795 - 145.815
LilacSat-2 23 Feb 06:50:56 06:54:29 35° 288° (WNW) 06:58:00 437.200
NUDT-PHONESAT 23 Feb 06:58:10 07:01:39 36° 288° (WNW) 07:05:06 437.300
BEESAT 2 23 Feb 07:04:18 07:08:04 46° 117° (ESE) 07:11:54 435.950
STRAND 1 23 Feb 07:12:23 07:17:16 43° 261° (W) 07:22:10 437.568
HO-68 23 Feb 07:13:11 07:19:56 43° 99° (E) 07:26:39 435.675
XW-2A 23 Feb 07:18:12 07:21:39 67° 101° (E) 07:25:05 145.665 - 145.685
AAUSAT CUBESAT 2 23 Feb 07:24:18 07:26:40 15° 92° (E) 07:29:02 437.432
SEEDS 23 Feb 07:26:13 07:30:01 32° 97° (E) 07:33:45 437.485
O/OREOS (USA 219) 23 Feb 07:28:39 07:30:23 12° 51° (NE) 07:32:06 437.305
CUTE-I 23 Feb 07:50:00 07:53:55 21° 297° (WNW) 07:57:50 437.470
CUBEBUG 2 23 Feb 07:51:00 07:55:34 45° 98° (E) 08:00:06 437.445
UNISAT 6 23 Feb 07:59:19 08:00:53 12° 61° (ENE) 08:02:27 437.425
CUTE 1.7 + AOD 2 23 Feb 07:59:23 08:03:35 65° 284° (WNW) 08:07:44 437.475
TIGRISAT 23 Feb 08:00:43 08:02:00 11° 61° (ENE) 08:03:17 435.000
ISS 23 Feb 08:07:41 08:10:35 29° 135° (SE) 08:13:29 437.550
BEESAT 3 23 Feb 08:10:52 08:13:27 17° 316° (NW) 08:16:05 437.485
AO-73 23 Feb 08:14:57 08:18:48 27° 95° (E) 08:22:35 145.935
SO-50 23 Feb 08:15:19 08:19:32 40° 244° (WSW) 08:23:42 436.795
Oscar 11 23 Feb 08:24:53 08:28:39 28° 96° (E) 08:32:22 .
PRISM 23 Feb 08:32:23 08:36:26 63° 74° (ENE) 08:40:27 437.425
UWE-3 23 Feb 08:33:43 08:38:26 80° 102° (ESE) 08:43:03 435.000/436.395/437.385
YUBILEINY 23 Feb 08:35:22 08:37:52 11° 73° (ENE) 08:40:21 435.215
Tancredo 1 23 Feb 08:38:57 08:42:11 65° 141° (SE) 08:45:25 437.200
BEESAT 2 23 Feb 08:43:17 08:46:05 18° 315° (NW) 08:48:55 435.950
AAUSAT CUBESAT 2 23 Feb 08:58:27 09:02:20 41° 287° (WNW) 09:06:11 437.432
ZACube-1 23 Feb 09:00:33 09:05:10 89° 281° (W) 09:09:40 437.345
HO-68 23 Feb 09:01:06 09:07:31 37° 297° (WNW) 09:13:54 435.675
SEEDS 23 Feb 09:02:24 09:05:28 20° 293° (WNW) 09:08:32 437.485
O/OREOS (USA 219) 23 Feb 09:05:49 09:10:24 82° 251° (WSW) 09:14:59 437.305
FO-29 23 Feb 09:07:43 09:14:09 39° 65° (ENE) 09:21:08 435.910
DELFI C3 23 Feb 09:18:13 09:21:49 33° 97° (E) 09:25:22 145.870
CUBEBUG 2 23 Feb 09:28:25 09:31:50 20° 294° (WNW) 09:35:14 437.445
AIST 2D 23 Feb 09:32:09 09:33:20 11° 65° (ENE) 09:34:32 435.315
UNISAT 6 23 Feb 09:32:27 09:36:54 75° 259° (W) 09:41:30 437.425
TIGRISAT 23 Feb 09:33:31 09:37:58 79° 256° (WSW) 09:42:34 435.000
ISS 23 Feb 09:43:56 09:46:59 34° 332° (NNW) 09:50:03 437.550
POLYITAN 1 23 Feb 09:45:32 09:47:36 13° 63° (ENE) 09:49:40 437.675
NANOSAT C BR1 23 Feb 09:47:35 09:49:27 13° 63° (ENE) 09:51:20 145.865
QB50P2 23 Feb 09:47:56 09:50:24 15° 64° (ENE) 09:52:52 145.880/145.840
AO-73 23 Feb 09:51:03 09:54:59 29° 291° (WNW) 09:58:50 145.935
Oscar 11 23 Feb 10:01:08 10:04:40 25° 292° (WNW) 10:08:10 .
UWE-3 23 Feb 10:12:39 10:14:10 12° 299° (WNW) 10:15:43 435.000/436.395/437.385
Tancredo 1 23 Feb 10:16:07 10:18:44 21° 338° (NNW) 10:21:19 437.200
YUBILEINY 23 Feb 10:24:09 10:32:52 68° 93° (E) 10:41:35 435.215
BUGSAT 1 23 Feb 10:29:03 10:30:03 11° 62° (ENE) 10:31:03 437.445
FO-29 23 Feb 10:52:27 10:58:59 43° 264° (W) 11:06:13 435.910
DELFI C3 23 Feb 10:53:42 10:56:21 18° 293° (WNW) 10:58:59 145.870
DUCHIFAT 1 23 Feb 10:53:59 10:58:07 62° 74° (ENE) 11:02:19 145.980
EO-79 23 Feb 11:01:53 11:06:06 88° 247° (WSW) 11:10:22 145.935-145.965
AIST 2D 23 Feb 11:02:45 11:06:09 44° 261° (W) 11:09:35 435.315
Oscar 19 23 Feb 11:14:33 11:17:04 14° 60° (ENE) 11:19:34 437.125/150
POLYITAN 1 23 Feb 11:18:45 11:22:53 55° 260° (W) 11:27:06 437.675
NANOSAT C BR1 23 Feb 11:20:31 11:24:39 58° 260° (W) 11:28:50 145.865
QB50P2 23 Feb 11:21:43 11:25:47 47° 261° (W) 11:29:55 145.880/145.840
ISS 23 Feb 11:22:26 11:24:12 14° 351° (N) 11:25:58 437.550
50 SAT 23 Feb 11:26:42 11:26:58 10° 91° (E) 11:27:13 437.505
ESTCUBE 1 23 Feb 11:36:47 11:41:17 82° 103° (ESE) 11:45:45 437.505/2401.250
Gurwin Techsat 1B 23 Feb 11:40:32 11:43:09 14° 59° (ENE) 11:45:46 435.225
Tancredo 1 23 Feb 11:54:34 11:55:57 12° 358° (N) 11:57:19 437.200
